Location: St Paul
(33.4390°N, 83.7350°W)
Time: 14:57:33
(UTC-04:00)

Cosmos 2082 Rocket - Pass Details

Date: 06 October 2017
Orbit: 831 x 856 km, 71.0° (Epoch: 21 October)

Event Time Altitude Azimuth Distance (km) Brightness Sun altitude
Rises 20:06:58 0° 216° (SW) 3,378 5.8 -12.2°
Reaches altitude 10° 20:09:29 10° 222° (SW) 2,451 5.2 -12.7°
Maximum altitude 20:14:52 46° 295° (WNW) 1,131 3.4 -13.9°
Drops below altitude 10° 20:20:19 10° 8° (N) 2,479 4.6 -15.0°
Sets 20:22:54 0° 14° (NNE) 3,421 5.3 -15.5°
